Find Starlink 3753

NORAD ID: 52292 Int'l Des: 2022-041 Owner: SPXS Country: US Constellation: starlink operational
LEOCIRCULAR

Live Position

Loading 3D Globe...

About Starlink 3753

Description loading...

Upcoming Passes

Passes for default location (London). Set your location on the main map for personalized predictions.

Altitude History

Loading altitude history...

Two-Line Element Set

1 52292U 22041AH 26106.77144869 .00000156 00000-0 27864-4 0 9993
2 52292 53.2165 288.1636 0001423 93.4612 266.6543 15.08840531220251
Epoch: Apr 16, 2026 • Age: 7 hours

Current Status

Altitude 548.0 km
Velocity 7.59 km/s
Sub-Earth Point -26.29°S, 104.09°W
Launch Date Apr 21, 2022
Age 3.9 years
Type internet

Technical Details

Classification Payload
Mass 297.00 kg
Dry Mass 275.00 kg
Total Mass 297.00 kg
Length 0.20 m
Diameter 2.80 m
Span 9.00 m
Shape Box + pan
Manufacturer SPXS
Bus Type Starlink
Phase Status In Orbit
Owner/State SPXS/US

Most Searched